Tracking 18844 objects as of 21-Nov-2017
HD Live streaming from Space Station
objects crossing your sky now

FENGYUN 1C DEB

Track FENGYUN 1C DEB now!
10-day predictions


NORAD ID: 31774
Int'l Code: 1999-025CFZ
Perigee: 820.4 km
Apogee: 925.6 km
Inclination: 99.0 °
Period: 102.3 minutes
Semi major axis: 7244 km
RCS: 0.0108 m2 (small)
Launch date: May 10, 1999
Source: People's Republic of China (PRC)
Launch site: Taiyaun Space Center, China (TSC)

Note: This is SATELLITE DEBRIS
aabbcc
Your satellite tracking list
Your tracking list is empty




NASA's NSSDC Master Catalog

Two Line Element Set (TLE):
1 31774U 99025CFZ 17324.33692044 +.00000764 +00000-0 +46378-3 0  9993
2 31774 098.9724 001.1742 0072661 259.0336 100.2652 14.08102416214660
Source of the keplerian elements: AFSPC